RH
38 39 40 41 35 43 50 51 41 42 38 34 27 28 31 32 29 23 26 27 28 28 29 28 21 19 19 17 18 19 18 18 18 16 18 19 22 21 23 19 18 18 20 24
43 35 34 43 43 41 40 34 33 39 40 34 26 29 30 31 27 22 21 26 26 26 26 27 22 20 20 18 18 19 19 18 18 19 21 23 24 24 28 25 22 23 27 29
45 44 43 43 41 35 27 32 34 38 41 29 24 21 25 25 24 22 20 20 27 27 25 24 21 20 19 18 18 18 19 19 18 20 23 23 25 27 29 27 29 29 32 35
33 41 41 43 34 28 32 30 27 32 32 29 30 27 22 24 23 22 19 18 19 24 25 23 23 22 21 19 18 20 20 19 18 20 23 22 26 30 36 39 39 39 43 44
33 32 28 31 29 30 34 30 27 24 25 24 27 25 23 21 20 22 22 20 19 18 24 25 25 23 23 22 20 20 21 21 21 20 24 25 30 38 41 48 55 53 48 48
31 25 25 28 32 30 27 25 25 24 25 27 24 27 27 26 23 21 17 16 17 18 19 22 24 25 24 25 23 22 22 22 23 24 24 30 35 44 49 53 61 56 54 55
29 30 29 27 33 29 29 29 38 40 43 35 29 26 31 27 26 24 21 15 15 16 18 21 24 25 25 24 26 25 23 26 27 28 29 33 45 50 57 63 62 63 61 64
31 32 25 19 29 32 30 31 52 47 45 48 39 30 30 25 24 22 20 16 15 16 18 21 26 25 23 22 22 25 27 28 31 33 39 45 47 54 60 62 71 66 67 65
35 37 36 29 28 35 33 34 33 39 39 44 41 34 31 34 31 28 21 18 16 14 14 15 18 19 21 22 22 24 30 33 40 42 47 53 56 60 69 68 68 67 62 66
32 39 39 35 30 33 40 38 41 47 56 47 32 33 38 38 33 32 31 29 24 20 18 17 17 19 22 25 26 29 38 46 53 50 53 60 63 68 69 69 63 61 69 73
31 38 43 35 27 26 31 37 33 40 45 51 43 35 37 37 32 33 31 31 30 26 22 18 16 14 16 26 37 44 48 54 60 62 64 68 70 69 65 59 63 69 75 74
29 33 39 31 28 22 31 35 36 58 43 43 38 36 32 36 40 39 33 31 25 22 18 16 18 19 24 35 50 57 61 65 65 65 65 66 70 66 62 66 70 73 73 69
26 32 46 39 31 26 25 29 43 48 45 44 54 31 28 33 35 30 28 23 23 23 25 26 30 38 45 49 53 56 58 59 65 68 68 67 67 64 64 69 73 71 67 64
29 32 32 37 39 38 37 34 46 46 54 50 43 30 31 26 28 25 27 28 28 33 39 44 49 50 48 48 50 53 57 61 63 63 61 62 63 63 67 71 68 62 55 45
28 33 34 35 39 37 35 35 39 43 34 37 29 28 25 34 34 32 32 40 43 46 48 50 49 48 46 46 48 51 53 56 56 56 59 61 62 65 66 60 52 42 39 39
27 36 39 41 36 34 34 32 40 41 39 40 42 39 40 38 34 37 46 51 52 50 49 47 44 44 46 47 48 49 50 51 54 57 58 60 60 58 50 42 38 37 30 23
32 34 38 42 40 39 44 42 42 43 43 44 44 43 47 47 48 55 52 48 47 46 43 43 44 45 46 49 51 53 54 55 56 56 56 54 50 43 39 35 28 21 17 17
36 37 43 48 47 71 44 42 46 45 46 47 46 49 47 48 49 47 48 45 42 41 43 45 46 48 49 51 52 54 55 56 56 53 51 47 42 36 28 21 16 16 16 18
43 43 57 63 52 44 42 43 45 44 40 40 43 44 46 47 47 47 42 39 41 42 44 46 48 48 49 50 52 53 55 54 53 51 45 38 31 21 15 14 15 15 17 20
43 46 52 52 54 51 40 43 44 39 37 38 41 42 44 43 41 44 44 45 43 44 44 46 48 49 51 52 53 54 53 52 49 42 35 24 17 13 13 14 15 17 20 22
49 47 61 55 52 39 41 41 42 41 39 36 38 40 39 34 38 43 44 43 43 43 44 48 50 52 52 52 53 52 51 49 41 30 20 14 12 13 14 15 18 21 22 21
54 52 57 53 60 56 40 38 43 43 37 35 34 35 35 37 40 41 41 41 41 43 46 49 50 50 51 52 52 51 49 41 27 17 12 12 13 14 15 17 21 22 21 23
62 50 51 48 47 39 38 41 44 45 38 36 34 35 35 39 40 40 39 39 41 43 46 49 50 50 50 52 52 52 46 27 16 11 12 13 14 15 18 21 23 22 22 25
61 57 54 55 48 43 40 39 43 45 40 39 36 33 37 39 40 39 38 39 41 43 47 50 50 49 51 51 51 49 30 16 11 11 13 15 16 17 20 23 22 21 25 29
66 62 56 55 55 48 43 44 47 46 41 42 37 37 40 40 40 37 38 39 41 44 49 50 50 51 51 51 51 36 18 11 11 13 14 15 16 20 23 23 20 24 28 32
63 63 58 57 58 51 44 46 50 48 43 42 41 42 41 40 39 37 38 40 42 46 49 49 51 51 50 51 42 24 12 10 10 14 15 16 18 22 23 20 22 27 30 33